Wetbulb
40.54 40.66 40.30 40.80 41.29 42.16 42.65 42.28 42.68 43.93 45.05 45.55 45.59 45.13 45.15 45.61 45.73 45.47 45.94 46.60 47.00 47.80 48.16 49.69 50.93 51.30 49.42 47.78 47.38 46.92 45.84 44.74 40.05 38.22 36.58 36.94 36.74 37.49 37.43 37.20 39.33 36.94 37.30
40.40 40.29 40.48 41.29 41.58 41.24 41.22 40.91 42.46 42.90 44.10 45.61 45.55 44.86 44.37 44.22 43.94 44.07 43.90 44.32 43.75 44.01 45.86 46.84 49.16 51.10 49.83 47.77 46.76 46.14 45.89 45.39 41.17 33.17 34.25 35.23 35.43 36.34 34.89 35.80 35.74 36.18 35.32
40.01 40.12 39.83 39.63 39.24 39.17 39.20 40.85 43.89 44.52 44.90 44.51 43.44 42.87 42.54 42.73 42.53 42.04 41.59 41.51 41.58 41.92 42.83 44.22 47.04 49.79 48.24 47.33 45.98 45.91 45.41 43.80 40.95 35.64 32.82 34.30 34.10 33.35 32.88 33.97 33.77 33.59 34.87
39.68 38.49 38.67 38.18 38.39 38.08 39.01 40.07 42.03 43.01 42.66 41.53 41.74 41.89 41.79 40.98 40.70 40.55 40.59 40.71 41.51 42.65 43.57 44.28 45.09 47.56 48.79 47.20 45.39 44.84 43.41 41.04 38.53 35.82 33.32 32.15 31.70 31.87 32.52 30.51 29.83 31.76 31.84
38.15 37.82 37.15 37.41 37.74 38.69 38.42 39.47 40.81 39.95 39.97 40.44 40.59 39.81 39.21 39.12 38.95 38.81 39.12 39.40 40.33 41.59 44.45 45.44 45.62 47.18 47.82 46.89 45.70 43.20 42.10 38.38 36.10 33.82 32.31 31.56 30.31 29.31 28.69 30.35 29.03 29.99 31.46
36.44 35.49 36.52 37.87 37.29 36.57 36.54 36.46 36.94 37.51 38.06 38.02 36.88 36.32 36.03 36.28 37.03 37.50 37.98 39.22 39.20 38.35 40.59 46.26 46.12 46.39 44.86 42.62 42.41 41.61 41.33 37.74 34.54 33.73 32.73 30.98 29.79 30.51 30.80 29.11 28.44 27.15 25.85
35.24 34.47 35.25 35.32 34.02 33.68 34.29 35.13 34.94 35.04 35.44 34.12 33.95 33.79 33.32 34.13 35.73 37.56 37.13 37.26 37.47 37.82 38.50 39.88 42.02 44.34 43.01 42.45 39.89 39.71 38.74 37.55 37.16 35.91 32.90 32.94 30.92 31.89 31.13 28.87 27.88 26.80 26.45
35.16 35.63 34.73 33.90 32.47 33.04 33.34 33.52 33.52 33.16 32.40 32.13 32.31 32.52 32.34 32.79 34.69 35.35 34.90 33.88 33.70 34.24 35.33 38.92 40.16 41.71 41.93 40.81 39.83 38.93 38.47 37.78 36.74 37.42 36.84 35.18 34.30 34.26 32.80 31.09 28.98 28.04 27.73
34.33 33.32 33.54 32.55 31.82 32.99 32.81 33.14 32.78 32.13 32.08 32.08 32.17 31.90 31.90 31.90 34.18 34.80 33.70 32.78 32.41 32.58 34.06 34.06 35.51 36.42 38.94 40.72 37.99 36.42 35.68 35.69 37.20 37.93 37.39 36.47 36.03 35.41 34.74 32.06 28.01 27.08 24.93
32.87 32.15 32.66 32.89 32.14 31.46 32.18 32.25 32.14 32.01 31.95 31.98 31.69 31.92 32.63 31.72 33.64 34.18 33.28 32.22 31.75 32.07 32.70 33.34 35.47 35.04 36.62 37.24 36.76 35.98 34.42 33.88 34.24 34.79 34.61 35.26 35.47 34.55 34.75 32.95 30.57 27.93 24.41
32.29 32.33 32.20 33.30 32.12 31.36 32.21 32.33 31.90 31.74 31.03 30.34 30.77 31.50 31.86 31.95 32.19 34.20 34.38 32.13 31.80 31.74 31.56 31.92 33.88 35.22 35.50 35.77 35.87 34.80 34.03 34.38 33.44 33.09 32.48 32.30 32.41 32.85 32.85 32.82 32.67 31.02 26.35
32.15 31.67 31.74 32.37 31.42 31.23 31.86 32.13 32.16 31.03 29.73 28.73 27.76 30.10 30.97 31.68 33.08 33.64 33.83 33.47 33.47 31.44 31.00 31.77 32.36 33.95 34.28 33.21 31.90 32.40 32.55 32.64 32.39 31.30 30.94 30.77 31.50 30.43 27.70 30.55 28.63 28.40 24.33
31.37 31.63 31.84 31.42 31.58 31.94 31.87 31.72 31.57 30.12 29.57 28.77 28.19 28.12 28.88 30.38 30.57 31.90 32.75 32.57 32.55 31.44 31.65 31.86 32.31 32.54 32.16 31.12 31.51 31.29 31.62 31.38 30.27 29.16 26.83 24.91 26.24 24.76 25.87 25.90 25.59 26.13 25.76
30.67 31.23 31.07 31.14 31.70 32.22 32.33 32.04 32.02 29.99 29.40 29.15 28.54 27.87 27.87 28.51 29.09 29.47 30.22 30.57 29.45 29.31 28.58 28.22 27.85 27.59 26.75 26.67 27.45 27.69 28.31 30.01 29.16 26.55 24.07 23.85 25.27 25.62 25.14 25.34 24.99 25.01 23.97
31.97 30.83 30.36 31.43 31.86 31.63 31.75 31.25 31.81 31.87 30.89 29.18 29.00 29.19 28.08 27.83 29.40 30.90 29.89 27.91 28.47 28.55 28.74 27.91 26.35 25.62 24.62 25.05 25.05 25.61 26.21 27.13 25.20 25.17 24.73 24.17 24.27 24.16 23.42 24.45 25.03 23.09 21.09
30.52 31.05 30.89 31.08 31.72 29.76 31.30 31.18 32.52 32.75 32.39 32.37 31.96 31.51 31.21 31.99 32.20 31.92 31.27 30.91 30.44 29.35 26.88 25.27 24.43 24.42 23.63 24.01 23.95 23.99 24.69 24.86 24.82 24.66 24.34 24.07 23.52 23.08 22.48 23.28 23.34 21.35 20.99
30.06 30.14 31.10 30.90 31.69 30.64 30.62 30.65 28.61 31.03 32.73 32.55 32.73 32.93 32.49 32.27 31.74 31.29 30.26 29.62 29.07 27.36 24.26 23.62 23.21 23.71 23.86 24.01 24.18 23.94 23.31 24.91 25.30 24.38 23.46 22.62 22.57 22.62 22.70 22.43 22.94 21.21 19.89
30.86 30.25 30.51 31.35 30.76 30.31 29.60 30.67 30.68 29.37 28.09 28.63 31.39 32.11 32.67 32.27 31.27 30.32 29.44 27.90 25.01 25.55 24.65 23.39 22.99 23.45 23.79 23.86 24.33 24.23 24.56 25.45 25.23 24.75 23.83 23.20 22.51 22.08 21.96 22.29 22.35 21.51 20.54
32.05 29.34 30.68 31.07 30.25 30.64 29.54 28.43 28.58 28.83 28.31 28.04 29.70 30.46 31.56 31.58 30.82 29.78 28.51 25.40 24.03 23.68 24.37 24.12 24.20 23.80 24.11 24.17 23.41 23.71 23.31 23.81 25.33 25.15 24.57 23.93 23.29 23.29 22.67 23.04 22.98 20.81 21.73
31.50 30.75 30.25 30.44 30.01 28.16 26.94 26.78 26.72 26.98 26.80 27.23 27.58 28.05 28.55 26.07 24.46 25.06 25.26 24.88 24.33 23.45 24.00 23.75 23.60 23.26 22.63 21.78 20.39 20.55 21.03 22.64 23.13 24.32 23.97 23.16 22.71 23.79 22.88 22.76 22.72 22.38 23.21
31.05 30.80 30.54 30.58 29.79 28.67 27.22 26.79 26.30 24.20 24.84 24.65 24.72 26.30 26.26 24.41 22.55 22.58 24.33 24.70 24.34 24.15 23.81 23.31 22.24 22.36 22.87 23.23 23.84 22.00 22.76 23.16 22.82 23.57 23.78 23.93 24.19 22.99 23.17 23.31 24.02 24.20 24.33
30.52 30.43 30.65 30.50 30.38 28.42 27.76 27.72 25.37 24.91 24.56 23.62 23.62 23.94 24.75 24.08 22.95 22.46 21.39 19.83 21.51 22.95 22.98 22.07 22.11 21.93 21.89 21.98 21.95 20.52 20.89 19.54 20.11 21.48 21.84 22.69 23.75 23.92 22.67 21.60 22.14 21.96 22.60
30.08 30.17 30.25 30.36 29.77 28.06 26.08 26.07 26.02 21.36 22.29 22.31 22.14 22.32 22.32 20.28 22.45 23.96 23.94 23.66 24.11 21.50 20.14 21.31 21.14 21.87 22.05 22.40 22.54 22.78 21.21 19.21 19.06 21.00 20.54 20.57 20.75 20.57 20.49 20.48 19.94 19.24 18.88
30.40 29.70 29.65 28.92 28.62 27.67 26.61 25.59 25.41 24.12 23.66 24.59 18.99 18.22 24.42 24.62 24.49 24.59 23.61 22.54 21.33 20.94 17.94 17.99 19.58 20.82 21.67 20.25 20.29 21.89 22.24 21.03 21.33 22.28 21.54 20.44 19.47 20.79 20.39 19.17 18.33 18.68 18.67
26.76 25.06 25.74 26.44 25.16 26.37 26.84 26.41 24.07 23.81 22.63 24.33 24.45 24.96 24.99 25.35 25.32 22.93 18.13 21.51 22.36 19.84 20.57 20.37 19.22 18.98 18.80 18.74 20.08 20.45 15.39 13.94 14.47 16.35 18.69 19.94 19.61 19.28 18.47 16.70 14.59 14.00 12.59
26.60 23.02 24.28 25.16 24.49 24.07 24.03 24.55 25.45 25.55 24.64 23.78 22.91 22.24 22.01 22.19 21.48 18.27 23.63 24.21 23.36 20.97 20.57 19.55 17.93 19.14 22.02 22.71 22.13 20.94 19.56 20.28 19.83 18.52 18.61 16.42 15.05 15.10 14.35 10.14 8.48 6.38 9.23
MSLP
1013.38 1013.13 1013.09 1012.85 1012.56 1012.10 1011.54 1010.80 1010.20 1009.45 1008.88 1008.31 1007.79 1007.42 1007.06 1006.56 1006.09 1005.75 1005.34 1004.89 1004.52 1004.04 1003.83 1003.73 1003.25 1003.39 1003.65 1004.78 1005.75 1007.46 1007.91 1008.94 1010.99 1012.95 1013.86 1016.23 1018.26 1018.77 1019.17 1019.98 1020.63 1021.33 1022.56
1013.09 1012.88 1012.69 1012.33 1011.90 1011.43 1010.77 1010.15 1009.50 1008.82 1008.11 1007.54 1007.01 1006.53 1005.83 1005.41 1005.07 1004.59 1004.05 1003.68 1003.24 1002.91 1002.46 1002.48 1001.89 1001.56 1001.90 1003.07 1004.50 1005.77 1007.04 1007.86 1009.25 1012.26 1014.00 1015.87 1016.62 1018.29 1019.20 1019.94 1020.75 1021.58 1022.31
1012.64 1012.44 1012.03 1011.75 1011.37 1010.76 1010.02 1009.20 1008.37 1007.79 1007.13 1006.68 1006.34 1005.86 1005.09 1004.46 1004.02 1003.70 1003.20 1002.63 1002.12 1001.47 1001.00 1000.77 1000.23 1000.36 1000.30 1001.16 1002.41 1004.36 1005.65 1007.17 1008.22 1010.70 1012.79 1013.91 1015.25 1017.57 1019.46 1020.18 1020.91 1021.88 1022.41
1012.07 1011.72 1011.36 1011.05 1010.67 1009.97 1009.31 1008.57 1007.89 1007.28 1006.62 1006.14 1005.55 1004.95 1004.23 1003.71 1003.24 1002.64 1001.96 1001.16 1000.13 999.20 998.73 998.47 998.40 998.47 998.45 999.43 1000.87 1002.88 1004.55 1006.26 1007.45 1009.68 1011.46 1013.69 1015.48 1017.33 1018.46 1019.30 1021.04 1021.77 1022.36
1011.49 1011.28 1010.96 1010.66 1010.35 1009.68 1008.96 1008.18 1007.58 1007.09 1006.36 1005.72 1004.82 1004.29 1003.79 1003.19 1002.58 1001.68 1000.77 999.67 998.42 997.25 996.14 995.45 995.34 995.76 996.29 997.24 999.13 1001.17 1003.32 1005.09 1007.14 1009.04 1011.01 1013.07 1014.69 1016.41 1017.31 1019.36 1020.16 1021.00 1022.50
1011.41 1011.13 1010.84 1010.43 1009.98 1009.45 1008.85 1008.15 1007.39 1006.50 1005.81 1005.28 1004.71 1003.94 1003.18 1002.68 1001.84 1000.67 999.55 998.25 997.03 995.93 994.38 992.62 992.79 994.09 995.21 996.91 998.36 999.97 1001.24 1003.68 1006.34 1007.73 1009.89 1011.51 1013.45 1014.93 1016.87 1018.23 1019.40 1020.17 1022.04
1011.19 1010.75 1010.55 1010.30 1009.89 1009.29 1008.66 1007.86 1007.00 1006.01 1005.24 1005.03 1004.47 1003.61 1002.87 1002.16 1001.23 999.94 998.76 997.83 996.89 995.89 994.46 993.13 993.05 993.50 994.89 996.82 998.67 1000.39 1001.94 1003.62 1004.18 1006.32 1008.58 1010.14 1011.92 1013.45 1015.56 1017.40 1018.63 1019.23 1019.97
1011.00 1010.68 1010.47 1009.99 1009.64 1008.98 1008.20 1007.27 1006.24 1005.70 1005.08 1004.71 1004.13 1003.50 1002.71 1001.92 1001.32 1000.29 999.20 998.46 997.55 996.55 995.56 994.99 994.49 995.21 996.21 997.55 999.53 1001.30 1003.04 1004.43 1005.55 1006.52 1007.26 1009.04 1011.02 1012.90 1013.95 1015.34 1017.36 1018.91 1020.85
1011.03 1010.67 1010.27 1010.03 1009.29 1008.45 1007.79 1006.77 1005.89 1005.58 1005.03 1004.54 1004.14 1003.45 1002.69 1002.10 1001.62 1000.74 999.92 999.23 998.66 998.08 997.39 996.83 996.47 996.96 997.71 998.51 1000.34 1002.22 1003.89 1005.32 1006.24 1006.95 1008.28 1009.64 1011.04 1012.27 1014.17 1016.19 1017.79 1018.33 1020.55
1010.96 1010.77 1010.27 1009.67 1008.76 1007.93 1007.28 1006.19 1005.90 1005.76 1005.21 1004.81 1004.31 1003.72 1003.11 1002.64 1002.07 1001.42 1000.73 1000.13 999.93 999.55 999.18 998.92 998.81 998.94 999.31 1000.11 1001.28 1002.52 1004.21 1005.52 1006.49 1007.99 1009.22 1010.18 1011.19 1012.60 1013.80 1014.64 1015.83 1017.29 1018.97
1010.91 1010.43 1009.70 1008.93 1008.27 1007.69 1006.83 1006.27 1006.16 1005.92 1005.59 1005.15 1004.66 1004.19 1003.69 1003.28 1002.69 1002.18 1001.63 1001.20 1001.11 1000.91 1000.80 1000.81 1000.87 1000.57 1000.99 1001.60 1002.54 1003.62 1004.79 1006.06 1007.41 1008.38 1009.85 1011.14 1012.31 1013.52 1014.69 1015.40 1015.92 1016.24 1017.51
1010.52 1009.85 1008.94 1008.49 1008.12 1007.36 1006.73 1006.37 1006.44 1006.27 1006.05 1005.63 1005.14 1004.76 1004.43 1004.02 1003.60 1003.10 1002.60 1002.28 1002.18 1002.11 1002.33 1002.43 1002.44 1002.64 1003.13 1003.67 1004.42 1005.19 1006.01 1006.99 1008.03 1009.33 1010.79 1011.99 1012.87 1014.19 1015.29 1015.75 1016.52 1016.91 1017.81
1010.14 1009.01 1008.57 1008.15 1007.71 1007.25 1006.81 1006.71 1006.74 1006.70 1006.40 1006.10 1005.71 1005.61 1005.32 1005.02 1004.70 1004.35 1003.88 1003.49 1003.33 1003.36 1003.60 1003.93 1004.04 1004.38 1004.84 1005.49 1006.08 1006.58 1007.22 1008.03 1009.02 1010.37 1011.77 1012.97 1013.78 1014.86 1015.77 1016.74 1017.27 1017.77 1018.58
1009.32 1008.61 1008.19 1008.14 1007.77 1007.14 1007.07 1007.08 1007.05 1006.88 1006.69 1006.54 1006.34 1006.39 1006.15 1005.81 1005.64 1005.45 1005.21 1005.04 1005.07 1005.05 1005.07 1005.34 1005.70 1006.13 1006.59 1007.16 1007.54 1008.03 1008.56 1009.13 1010.03 1011.31 1012.67 1013.53 1014.24 1015.23 1016.03 1016.58 1017.54 1018.31 1019.28
1008.58 1008.55 1008.33 1007.75 1007.64 1007.74 1007.47 1007.40 1007.26 1007.01 1006.84 1006.85 1006.82 1006.85 1006.81 1006.66 1006.61 1006.41 1006.27 1006.35 1006.42 1006.59 1006.58 1006.72 1007.04 1007.35 1007.88 1008.45 1008.97 1009.48 1009.93 1010.48 1011.20 1011.98 1012.48 1013.59 1014.81 1015.64 1016.54 1017.14 1017.82 1018.44 1019.35
1008.61 1008.38 1008.27 1007.84 1008.15 1008.14 1007.83 1007.77 1007.61 1007.25 1007.07 1007.08 1007.17 1007.13 1007.30 1007.39 1007.37 1007.28 1007.29 1007.41 1007.53 1007.54 1007.70 1008.15 1008.69 1008.99 1009.34 1009.81 1010.17 1010.60 1010.99 1011.50 1012.06 1012.63 1013.47 1014.39 1015.38 1016.31 1017.14 1017.79 1018.19 1018.70 1019.77
1008.80 1008.89 1008.33 1008.12 1008.52 1008.43 1008.14 1008.22 1008.13 1007.87 1007.79 1007.82 1007.77 1007.71 1007.84 1007.99 1008.18 1008.18 1008.32 1008.50 1008.61 1008.53 1009.00 1009.55 1009.99 1010.38 1010.64 1010.93 1011.28 1011.71 1012.18 1012.67 1013.06 1013.64 1014.31 1015.14 1016.03 1016.97 1017.67 1018.23 1018.86 1019.37 1020.09
1009.04 1008.90 1008.61 1008.71 1008.93 1008.85 1008.56 1008.54 1008.46 1008.49 1008.58 1008.67 1008.58 1008.54 1008.72 1008.89 1008.92 1009.21 1009.33 1009.38 1009.76 1010.15 1010.51 1010.90 1011.30 1011.61 1011.89 1012.13 1012.37 1012.70 1013.21 1013.49 1013.75 1014.27 1015.02 1015.88 1016.56 1017.24 1018.12 1018.66 1019.09 1019.43 1020.13
1009.04 1008.99 1008.89 1009.12 1009.26 1009.28 1009.03 1008.94 1008.95 1009.05 1009.26 1009.49 1009.45 1009.49 1009.67 1009.89 1010.08 1010.22 1010.29 1010.51 1010.92 1011.19 1011.41 1011.68 1011.98 1012.34 1012.68 1012.97 1013.26 1013.51 1013.76 1014.17 1014.53 1015.06 1015.69 1016.26 1016.92 1017.55 1018.03 1018.52 1019.00 1019.66 1020.35
1009.18 1009.26 1009.20 1009.36 1009.62 1009.63 1009.58 1009.65 1009.70 1009.67 1009.81 1010.09 1010.32 1010.48 1010.72 1010.95 1011.22 1011.36 1011.45 1011.62 1011.80 1012.04 1012.31 1012.55 1012.84 1013.08 1013.39 1013.66 1013.96 1014.23 1014.55 1014.89 1015.31 1015.67 1016.16 1016.71 1017.25 1017.69 1018.32 1018.74 1019.18 1019.72 1020.13
1009.37 1009.40 1009.56 1009.68 1009.97 1010.16 1010.16 1010.20 1010.36 1010.55 1010.77 1010.95 1011.08 1011.23 1011.50 1011.89 1012.20 1012.31 1012.41 1012.51 1012.61 1012.83 1013.05 1013.32 1013.58 1013.89 1014.10 1014.30 1014.60 1014.95 1015.21 1015.60 1015.83 1016.19 1016.65 1017.18 1017.70 1018.23 1018.55 1018.82 1019.17 1019.72 1020.29
1009.46 1009.65 1009.84 1010.06 1010.28 1010.56 1010.72 1010.78 1010.86 1011.13 1011.59 1011.85 1011.96 1012.11 1012.15 1012.47 1012.79 1013.06 1013.31 1013.58 1013.62 1013.57 1013.70 1013.93 1014.23 1014.37 1014.61 1014.89 1015.17 1015.56 1015.99 1016.33 1016.61 1016.99 1017.29 1017.68 1018.06 1018.45 1018.81 1019.25 1019.67 1020.05 1020.47
1009.74 1010.02 1010.24 1010.49 1010.66 1010.92 1011.23 1011.53 1011.66 1011.79 1012.01 1012.18 1012.40 1012.65 1012.87 1013.11 1013.45 1013.69 1013.93 1014.19 1014.34 1014.47 1014.52 1014.62 1014.87 1015.09 1015.21 1015.42 1015.67 1015.90 1016.29 1016.71 1017.02 1017.24 1017.68 1018.14 1018.54 1018.96 1019.28 1019.68 1020.13 1020.51 1020.91
1010.15 1010.32 1010.61 1010.92 1011.11 1011.28 1011.54 1011.94 1012.36 1012.55 1012.73 1012.97 1013.15 1013.30 1013.46 1013.59 1013.91 1014.32 1014.58 1014.73 1014.82 1015.12 1015.31 1015.45 1015.51 1015.74 1015.85 1016.15 1016.32 1016.42 1016.68 1017.01 1017.18 1017.50 1017.88 1018.38 1018.95 1019.42 1019.94 1020.30 1020.62 1020.96 1021.36
1010.48 1010.69 1011.01 1011.23 1011.44 1011.65 1011.94 1012.30 1012.78 1013.04 1013.19 1013.44 1013.74 1013.94 1013.97 1014.20 1014.47 1014.81 1015.09 1015.28 1015.49 1015.68 1015.86 1015.96 1016.25 1016.38 1016.70 1016.87 1017.04 1017.20 1017.32 1017.50 1017.77 1017.96 1018.39 1018.79 1019.43 1019.95 1020.47 1020.99 1021.47 1021.87 1022.25
1010.95 1011.21 1011.52 1011.68 1011.91 1012.13 1012.40 1012.75 1013.00 1013.21 1013.48 1013.83 1014.14 1014.52 1014.73 1014.93 1015.26 1015.55 1015.78 1015.98 1016.22 1016.49 1016.64 1016.85 1017.17 1017.36 1017.55 1017.70 1017.77 1017.83 1017.95 1018.13 1018.38 1018.65 1018.99 1019.56 1020.22 1020.80 1021.28 1021.80 1022.23 1022.63 1023.06
Wind_Speed
7 7 7 7 8 8 10 13 15 15 15 14 14 14 15 16 16 15 18 20 20 18 17 21 21 20 13 12 13 14 14 12 12 6 7 16 15 14 14 12 13 11 12
8 7 7 7 8 10 13 14 14 15 16 15 14 17 17 17 18 19 18 17 19 22 23 23 23 17 25 19 16 19 17 15 14 17 14 14 16 14 13 14 11 9 10
6 6 7 7 8 12 14 15 14 14 15 16 16 17 17 17 15 17 19 21 21 22 23 24 23 21 23 18 18 18 16 12 17 14 13 12 12 13 14 11 11 11 9
5 6 9 9 11 12 14 15 15 14 15 16 17 17 15 15 17 18 19 21 21 21 24 26 27 26 23 23 20 20 18 16 16 14 15 14 14 14 12 13 11 9 10
7 9 11 10 12 17 18 16 15 16 15 16 15 12 15 14 12 16 18 19 21 19 22 24 26 29 30 28 18 21 22 17 16 16 14 14 13 14 15 11 12 11 8
7 9 10 13 14 16 17 15 16 15 15 13 12 14 13 10 21 25 22 17 13 8 14 16 17 27 28 31 32 35 29 24 17 15 13 17 17 15 11 14 13 13 9
7 7 7 11 11 12 14 15 14 14 10 12 12 11 12 12 18 18 12 6 6 6 5 7 8 11 23 21 25 26 26 29 29 22 20 19 19 17 17 16 16 14 8
8 9 11 11 12 13 13 13 11 8 8 10 10 10 9 7 15 13 11 7 7 8 7 8 11 16 18 21 21 18 18 19 19 14 18 17 16 18 20 18 18 11 9
8 10 12 11 14 12 12 11 9 8 8 7 7 8 7 6 11 11 8 7 9 11 11 9 11 13 22 29 20 18 15 12 11 21 20 23 26 26 19 14 13 14 6
9 11 11 11 13 12 12 10 7 6 6 5 6 6 8 7 10 9 8 4 7 7 9 12 15 16 23 26 18 18 16 12 14 13 12 16 22 23 29 18 17 14 7
9 10 10 9 11 11 9 6 6 5 5 5 5 6 7 9 7 10 10 5 4 6 6 7 8 21 22 21 16 12 13 13 14 13 11 10 10 12 10 7 11 12 8
9 9 10 9 10 9 8 6 5 4 4 5 5 5 6 8 12 12 13 12 9 8 7 7 10 21 21 21 16 21 21 14 10 10 10 9 10 9 5 7 5 7 4
7 8 8 10 9 8 7 5 4 3 3 3 4 5 5 6 7 15 15 15 14 9 8 16 22 22 22 18 20 19 14 9 10 9 8 6 6 7 9 8 9 11 11
7 9 9 9 10 8 4 3 3 2 2 3 3 4 4 5 6 6 6 8 13 10 11 13 16 17 16 11 10 11 7 7 8 9 7 7 8 6 7 5 5 6 6
6 9 9 7 7 6 4 4 3 2 0 1 2 3 3 5 5 10 8 7 7 8 8 8 8 8 8 8 8 8 7 7 8 7 8 9 8 7 6 5 6 4 4
7 6 6 7 5 3 4 4 8 5 4 7 7 5 5 9 11 15 18 18 17 12 7 7 7 7 7 6 6 7 7 8 7 8 8 8 8 7 7 5 4 5 7
5 5 5 6 5 4 3 4 4 6 8 6 7 9 10 11 13 16 18 18 16 12 8 7 7 6 6 6 6 5 6 6 7 7 7 7 7 6 6 6 5 6 6
4 5 4 4 5 4 3 3 3 3 4 4 6 7 11 12 14 15 14 10 6 7 5 5 5 5 5 5 5 5 5 6 6 7 7 6 6 6 6 6 5 5 7
3 3 3 3 3 4 3 3 3 5 5 4 4 6 8 13 14 11 11 5 4 4 4 4 4 4 4 4 4 4 5 5 6 6 5 6 5 6 5 4 5 6 6
4 5 4 3 4 4 4 4 3 4 5 5 5 5 5 5 4 4 4 4 4 4 4 4 4 3 3 4 3 3 4 5 4 5 5 5 4 5 5 5 5 5 3
3 3 3 3 4 3 4 4 4 4 4 5 5 6 9 5 4 4 4 4 3 3 3 3 4 4 4 4 4 3 4 4 4 4 4 4 4 4 3 4 4 4 5
3 3 3 3 3 4 4 4 4 5 5 5 5 6 9 5 5 5 5 4 4 4 3 4 3 3 3 4 4 4 4 4 4 4 4 4 4 4 4 3 4 3 4
3 3 4 4 4 6 5 5 4 3 5 5 4 5 5 4 5 5 5 4 4 4 3 4 4 4 4 4 3 3 4 3 3 4 5 4 4 4 4 4 4 3 3
3 3 4 4 4 5 5 6 5 5 6 6 4 3 6 6 7 7 4 4 4 4 4 4 4 5 5 4 3 4 4 3 3 4 6 5 4 5 5 4 4 4 3
3 3 3 3 4 4 5 5 5 4 4 6 6 6 6 7 6 5 4 4 5 5 6 5 4 6 7 7 6 6 5 6 5 5 4 5 6 6 4 4 3 3 3
3 4 3 4 4 4 4 4 4 5 5 4 5 4 4 5 5 4 7 6 6 6 7 6 7 10 10 7 7 8 8 8 7 7 5 5 5 4 4 5 5 3 4
Wind_Direction
269 261 259 261 263 259 272 290 285 281 278 273 273 274 272 271 270 266 263 263 256 248 252 254 232 218 201 186 190 193 188 179 173 149 131 152 163 159 153 149 142 133 145
250 256 263 270 275 279 286 290 283 278 280 275 276 280 277 275 274 269 267 265 262 259 251 245 247 222 208 192 189 192 192 183 155 152 150 158 152 152 146 147 141 133 134
262 265 272 272 276 288 291 292 290 289 290 289 289 283 279 278 274 272 269 264 257 253 250 249 245 229 207 186 187 188 183 174 158 154 147 147 146 144 151 141 142 136 139
291 286 295 297 297 300 296 294 294 294 294 289 285 281 279 283 279 274 269 264 257 251 247 239 233 228 213 190 182 182 169 161 152 151 147 150 150 154 152 146 146 146 149
313 309 309 309 306 309 306 300 299 298 292 289 288 286 287 281 279 277 277 278 273 266 260 240 225 223 215 192 175 166 163 150 152 151 151 154 152 155 158 160 152 142 149
303 303 306 313 310 310 308 308 297 294 294 293 292 289 287 282 285 285 282 281 272 266 275 240 206 212 177 167 167 164 160 153 156 150 155 159 155 159 153 160 155 153 152
294 303 308 311 306 307 298 294 295 295 299 298 293 293 288 289 309 308 318 301 310 299 322 92 111 155 154 148 145 151 151 155 152 154 155 164 159 164 154 155 160 163 143
310 314 313 311 305 303 296 295 297 301 308 302 301 302 297 305 327 337 8 359 3 1 13 54 108 132 135 132 135 135 142 145 149 155 159 153 160 161 163 161 157 132 106
320 316 315 310 310 310 306 310 323 317 319 317 315 321 331 331 339 358 9 19 25 22 24 30 86 105 130 133 133 135 131 123 128 142 149 150 154 150 146 140 154 149 131
319 310 306 312 315 319 314 321 326 319 318 329 338 350 354 351 354 16 29 26 45 38 39 43 73 99 114 128 131 132 127 125 117 112 121 130 142 153 159 161 159 160 138
300 301 314 317 323 327 321 324 330 336 342 343 356 3 10 8 2 22 38 43 51 57 51 57 66 77 81 85 91 107 117 118 115 112 112 121 130 144 153 153 172 159 148
295 318 337 336 337 335 332 339 335 354 344 353 358 15 15 13 26 43 58 60 57 77 74 71 80 88 93 90 92 103 104 106 108 112 120 132 137 138 113 125 108 104 65
316 343 340 344 343 346 343 343 336 347 348 358 20 16 22 16 29 36 51 55 57 67 74 85 82 81 85 88 100 98 104 110 111 113 114 108 110 118 111 98 85 87 71
349 359 355 348 349 354 347 332 324 336 1 14 31 27 20 24 26 26 37 50 53 57 55 66 76 80 75 76 72 66 73 90 111 119 120 110 106 116 120 117 113 112 96
20 5 1 357 355 340 353 345 334 327 31 65 51 40 28 38 46 62 65 68 71 63 67 63 63 66 69 68 68 71 77 83 97 110 107 106 106 107 100 101 122 105 98
25 358 2 4 347 325 6 354 19 11 81 97 93 86 68 89 80 82 83 75 64 59 59 63 59 62 71 72 78 78 74 82 88 96 100 111 116 117 115 102 98 100 123
30 355 0 11 347 345 16 10 4 34 57 78 90 93 88 97 92 95 85 70 59 59 60 53 57 56 59 66 79 78 80 88 99 99 102 104 109 108 118 118 121 121 117
45 15 16 4 358 344 21 28 35 33 39 28 41 90 100 101 103 99 87 71 54 53 66 77 74 69 71 76 78 93 103 103 100 102 102 111 115 123 130 134 133 120 127
50 23 25 26 11 5 16 39 54 64 62 49 56 67 92 102 98 77 65 69 75 71 73 78 79 76 76 75 77 83 91 92 102 109 113 119 121 132 123 122 122 125 134
55 52 50 39 35 23 29 33 41 68 77 69 59 64 69 51 48 46 49 65 68 67 68 79 80 80 80 85 69 72 79 87 96 100 108 112 118 127 134 133 134 142 124
64 58 68 59 55 42 52 54 53 45 60 72 74 78 81 77 52 44 54 54 70 75 76 84 90 97 94 97 96 88 92 95 94 102 105 116 124 118 118 119 121 127 140
71 66 62 67 82 79 70 58 71 81 76 73 67 63 74 67 64 54 44 38 36 62 66 82 78 80 92 104 108 100 105 108 100 104 102 106 109 109 106 104 114 112 128
76 84 78 75 82 87 79 82 77 59 88 90 96 93 80 73 69 63 60 47 51 50 49 74 79 71 63 69 74 100 111 116 125 112 106 98 97 99 99 101 103 88 92
95 94 97 96 93 93 98 98 100 79 94 94 74 71 95 98 96 93 83 76 75 62 54 63 69 79 73 65 63 65 85 89 93 103 106 102 96 102 99 99 97 92 91
86 88 85 102 97 98 100 102 112 108 90 106 111 107 97 100 88 76 65 68 62 64 62 61 56 67 70 74 68 67 64 85 87 94 89 97 104 107 106 96 99 86 84
85 82 95 94 89 86 89 98 97 101 101 94 91 82 82 85 85 78 89 81 72 68 68 61 66 74 75 65 68 68 64 67 76 85 88 97 102 94 93 101 99 92 107